This is the latest recevied weather packets stored in our database for station/object N2ZVN. If no packets are shown the sender has not sent any weather packets the latest 10 day(s).
| Time | Temp. | Humidity | Pressure | Rain* | Wind** | Luminosity | Snow |
|---|---|---|---|---|---|---|---|
| 1777675503 | 7.78° C | 75% | 1012.6 hPa | 0 mm | - | 56 W/m² | - |
| 1777675199 | 7.78° C | 76% | 1012.7 hPa | 0 mm | - | 59 W/m² | - |
| 1777674896 | 7.78° C | 77% | 1012.6 hPa | 0 mm | - | 59 W/m² | - |
| 1777674591 | 7.78° C | 78% | 1012.8 hPa | 0 mm | - | 68 W/m² | - |
| 1777674289 | 7.78° C | 78% | 1012.7 hPa | 0 mm | - | 71 W/m² | - |
| 1777673985 | 7.78° C | 80% | 1012.7 hPa | 0 mm | - | 75 W/m² | - |
| 1777673682 | 7.78° C | 78% | 1012.7 hPa | 0 mm | - | 72 W/m² | - |
| 1777673380 | 7.78° C | 80% | 1012.7 hPa | 0 mm | - | 89 W/m² | - |
| 1777673077 | 7.78° C | 82% | 1012.8 hPa | 0 mm | - | 79 W/m² | - |
| 1777672773 | 7.78° C | 84% | 1012.8 hPa | 0 mm | - | 68 W/m² | - |
| 1777672470 | 7.78° C | 81% | 1012.8 hPa | 0 mm | - | 86 W/m² | - |
| 1777672165 | 7.78° C | 81% | 1012.6 hPa | 0 mm | - | 92 W/m² | - |
| 1777671861 | 7.78° C | 82% | 1012.7 hPa | 0 mm | - | 102 W/m² | - |
| 1777671556 | 7.78° C | 83% | 1012.8 hPa | 0 mm | - | 97 W/m² | - |
| 1777671254 | 7.78° C | 83% | 1013 hPa | 0 mm | - | 112 W/m² | - |
| 1777670949 | 7.78° C | 82% | 1012.6 hPa | 0 mm | - | 117 W/m² | - |
| 1777670646 | 7.22° C | 83% | 1012.7 hPa | 0 mm | - | 116 W/m² | - |
| 1777670343 | 7.22° C | 84% | 1012.7 hPa | 0 mm | - | 113 W/m² | - |
| 1777670040 | 7.78° C | 83% | 1012.5 hPa | 0 mm | - | 124 W/m² | - |
| 1777669738 | 7.78° C | 83% | 1012.3 hPa | 0 mm | - | 138 W/m² | - |
| 1777669435 | 7.78° C | 85% | 1012.3 hPa | 0 mm | - | 149 W/m² | - |
| 1777669131 | 7.78° C | 84% | 1012.3 hPa | 0 mm | - | 154 W/m² | - |
| 1777668828 | 7.22° C | 85% | 1012.4 hPa | 0 mm | - | 162 W/m² | - |
| 1777668525 | 7.78° C | 84% | 1012.4 hPa | 0 mm | - | 176 W/m² | - |
| 1777668221 | 7.78° C | 86% | 1012.7 hPa | 0 mm | - | 194 W/m² | - |
* Rain latest hour (hover to see other rain measurements)
** Current wind speed in m/s (hover to see current wind gust speed)